Home > Weather > Olongapo > Past weeks

Flag for Philippines Past Weather in Olongapo, Philippines — Yesterday and Last 2 Weeks

Now
79 °F

Partly cloudy.


Feels Like: 82 °F
Forecast: 77 / 91 °F
Wind: 2 mph from North

Location: Subic Bay Weather Station

Current Time: Jun 27, 2016 at 10:59:28 PM

Latest Report: Jun 27, 2016 at 10:00 PM


Visibility: N/A

Pressure: 29.80 "Hg

Humidity: 89%

Dew Point: 75 °F

Location of OlongapoLocation

Past Weather in Olongapo — Graph

°F

Olongapo Temperature Yesterday

Maximum temperature yesterday: 91 °F (at 1:00 PM)
Minimum temperature yesterday: 77 °F (at 2:00 AM)
Average temperature yesterday: 82 °F

High & Low Weather Summary for the Past Weeks

 TemperatureHumidityPressure
High93 °F (Jun 17, 12:00 PM)94% (Jun 13, 3:00 AM)29.86 "Hg (Jun 13, 3:00 AM)
Low75 °F (Jun 13, 3:00 AM)47% (Jun 19, 4:00 PM)29.68 "Hg (Jun 19, 4:00 PM)
Average83 °F77%29.78 "Hg
* Reported Jun 12 10:00 PM — Jun 27 10:00 PM, Olongapo, Weather by CustomWeather, © 2016

Note: Actual official high and low records may vary slightly from our data, if they occured in-between our weather recording intervals... More about our weather records

Advertising

Olongapo Weather History for the Previous 24 Hours

Scroll right to see more
 ConditionsComfort  
Time TempWeatherWind HumidityBarometerVisibility
10:00 PM
Mon, Jun 27
79 °FPartly cloudy.2 mph89%29.80 "HgN/A
9:00 PM79 °FPassing clouds.2 mph89%29.80 "HgN/A
8:00 PM79 °FPartly cloudy.2 mph89%29.80 "HgN/A
7:00 PM81 °FMostly cloudy.6 mph84%29.77 "HgN/A
6:00 PM81 °FPartly sunny.1 mph84%29.77 "HgN/A
5:00 PM81 °FPartly sunny.7 mph84%29.74 "HgN/A
4:00 PM82 °FPartly sunny.10 mph84%29.74 "HgN/A
3:00 PM82 °FPartly sunny.2 mph84%29.74 "HgN/A
2:00 PM81 °FPartly sunny.2 mph89%29.77 "HgN/A
1:00 PM79 °FLots of rain. More clouds than sun.1 mph84%29.77 "Hg3 mi
12:00 PM84 °FRain showers. Broken clouds.1 mph79%29.77 "Hg6 mi
11:00 AM86 °FBroken clouds.7 mph70%29.77 "HgN/A
10:00 AM84 °FBroken clouds.10 mph74%29.77 "HgN/A
9:00 AM82 °FBroken clouds.12 mph79%29.80 "HgN/A
8:00 AM81 °FPartly sunny.9 mph84%29.77 "HgN/A
7:00 AM79 °FPartly sunny.6 mph84%29.77 "HgN/A
6:00 AM77 °FPartly sunny.5 mph89%29.74 "HgN/A
5:00 AM77 °FPassing clouds.No wind89%29.74 "HgN/A
4:00 AM77 °FPassing clouds.No wind89%29.71 "HgN/A
3:00 AM77 °FOvercast.1 mph89%29.71 "HgN/A
2:00 AM77 °FSprinkles. Mostly cloudy.2 mph89%29.74 "Hg6 mi
1:00 AM77 °FOvercast.9 mph83%29.74 "HgN/A
12:00 AM81 °FMostly cloudy.No wind79%29.77 "HgN/A
11:00 PM
Sun, Jun 26
81 °FMostly cloudy.9 mph79%29.77 "HgN/A
10:00 PM81 °FMostly cloudy.5 mph74%29.77 "HgN/A
Weather by CustomWeather, © 2016

See weather overviewHow to use our weather pages